Total_Precipitation_Accumulation
0.65 0.66 0.76 0.83 0.83 0.90 0.97 0.97 0.94 0.96 0.99 0.95 0.92 0.90 0.87 0.93 1.04 1.11 1.11 1.13 1.18 1.15 1.15 1.17 1.15 1.14 1.19 1.20 1.20 1.20 1.23 1.41 1.40 0.72 0.50 0.54 0.66 0.72 0.73 0.70 0.71 0.76 0.80
0.73 0.73 0.75 0.85 0.89 0.92 0.98 1.05 1.04 1.04 1.06 1.03 1.01 0.96 0.87 0.84 0.92 1.02 1.07 1.10 1.15 1.14 1.14 1.18 1.18 1.19 1.23 1.23 1.28 1.28 1.25 1.30 1.41 1.09 0.69 0.64 0.71 0.75 0.79 0.80 0.74 0.74 0.76
0.71 0.80 0.81 0.83 0.91 1.01 1.07 1.10 1.11 1.07 1.10 1.11 1.09 1.07 1.01 0.96 0.99 1.01 1.03 1.06 1.07 1.07 1.07 1.12 1.17 1.25 1.30 1.28 1.28 1.29 1.24 1.19 1.25 1.27 0.95 0.76 0.78 0.82 0.89 0.91 0.89 0.89 0.86
0.74 0.75 0.87 0.94 0.93 0.99 1.07 1.12 1.18 1.16 1.14 1.15 1.14 1.14 1.13 1.14 1.25 1.26 1.16 1.14 1.07 1.04 1.03 1.08 1.15 1.26 1.35 1.43 1.53 1.44 1.35 1.40 1.41 1.43 1.22 0.97 0.88 0.87 1.05 1.11 1.08 1.01 0.98
0.93 0.90 0.88 0.94 0.96 0.94 1.00 1.03 1.10 1.17 1.17 1.13 1.09 1.08 1.12 1.22 1.51 1.55 1.37 1.26 1.18 1.13 1.07 1.06 1.08 1.28 1.51 1.74 1.88 1.81 1.77 1.83 1.78 1.76 1.56 1.28 1.10 1.09 1.17 1.16 1.21 1.10 1.07
1.06 1.07 0.96 0.92 0.93 0.95 0.97 0.99 1.02 1.06 1.07 1.06 1.03 1.02 1.08 1.23 1.66 1.72 1.52 1.29 1.23 1.22 1.19 1.12 1.10 1.20 1.30 1.50 1.73 1.80 1.88 2.01 2.09 2.04 1.88 1.62 1.26 1.13 1.19 1.37 1.51 1.53 1.36
1.08 1.14 1.10 0.97 0.92 0.93 0.92 0.92 0.92 0.93 0.97 0.96 0.96 0.99 0.99 1.16 1.61 1.63 1.45 1.18 1.11 1.12 1.11 1.06 1.06 1.06 1.13 1.06 1.20 1.31 1.40 1.59 1.84 2.01 2.08 1.69 1.38 1.25 1.48 1.73 1.76 1.74 1.49
1.12 1.10 1.06 0.97 0.88 0.89 0.92 0.89 0.81 0.80 0.86 0.90 0.92 0.93 0.91 0.97 1.39 1.60 1.43 1.05 1.00 1.05 1.04 1.04 1.05 1.02 1.03 1.13 1.18 1.19 1.11 1.13 1.36 1.59 1.73 1.58 1.48 1.50 1.74 2.06 2.21 2.27 1.89
1.03 1.02 0.99 0.94 0.89 0.91 0.94 0.90 0.81 0.78 0.79 0.81 0.83 0.88 0.87 0.90 1.19 1.57 1.60 1.16 1.12 1.08 1.07 1.19 1.24 1.15 1.22 1.41 1.49 1.43 1.20 1.03 1.10 1.43 1.71 1.75 1.82 2.03 2.26 2.65 2.95 3.04 2.70
0.85 0.89 0.95 0.90 0.88 0.93 0.95 0.92 0.87 0.84 0.85 0.87 0.86 0.91 0.91 0.86 1.07 1.49 1.77 1.35 1.27 1.15 1.13 1.25 1.57 1.52 1.52 1.57 1.56 1.59 1.53 1.19 1.07 1.12 1.22 1.33 1.37 1.47 1.86 2.20 2.50 2.83 2.78
0.72 0.76 0.87 0.90 0.88 0.90 0.92 0.95 0.94 0.93 0.94 0.96 0.94 0.92 0.92 0.89 0.95 1.25 1.72 1.59 1.40 1.31 1.29 1.33 1.45 1.57 1.56 1.59 1.64 1.60 1.64 1.55 1.46 1.42 1.34 1.27 1.28 1.39 1.55 1.80 2.06 2.40 2.68
0.68 0.71 0.77 0.86 0.86 0.88 0.90 0.88 0.88 0.94 1.00 1.01 1.01 0.98 0.95 0.94 0.95 1.10 1.46 1.69 1.61 1.39 1.34 1.23 1.31 1.49 1.54 1.58 1.54 1.57 1.68 1.70 1.58 1.53 1.44 1.33 1.27 1.31 1.36 1.50 1.76 1.93 2.10
0.65 0.70 0.75 0.83 0.84 0.83 0.83 0.84 0.81 0.82 0.90 0.97 0.99 1.01 0.99 0.95 0.99 1.14 1.23 1.34 1.47 1.37 1.34 1.52 1.50 1.47 1.42 1.35 1.37 1.45 1.43 1.39 1.46 1.45 1.31 1.15 1.06 1.09 1.19 1.36 1.55 1.73 1.87
0.67 0.74 0.78 0.83 0.86 0.83 0.77 0.77 0.78 0.83 0.97 1.06 1.03 1.02 0.98 0.96 1.02 1.20 1.24 1.20 1.28 1.31 1.31 1.42 1.42 1.29 1.18 1.15 1.21 1.24 1.22 1.29 1.42 1.42 1.28 1.12 1.04 1.09 1.19 1.29 1.47 1.62 1.88
0.66 0.73 0.79 0.83 0.85 0.83 0.78 0.78 0.82 0.86 1.07 1.33 1.28 1.24 1.25 1.25 1.32 1.60 1.59 1.47 1.47 1.50 1.52 1.48 1.35 1.20 1.12 1.05 1.02 1.01 1.04 1.17 1.30 1.27 1.29 1.27 1.22 1.21 1.22 1.24 1.41 1.57 1.77
0.66 0.70 0.76 0.85 0.88 0.84 0.79 0.80 0.84 0.85 0.93 0.97 1.02 1.14 1.16 1.33 1.49 1.48 1.41 1.39 1.44 1.49 1.51 1.41 1.22 1.10 1.05 1.00 1.00 1.01 0.99 1.03 1.07 1.15 1.24 1.27 1.29 1.30 1.30 1.28 1.42 1.58 1.64
0.69 0.71 0.74 0.78 0.82 0.83 0.80 0.78 0.80 0.79 0.79 0.81 0.84 0.92 1.05 1.22 1.27 1.26 1.30 1.24 1.24 1.25 1.23 1.12 1.04 1.02 1.00 0.99 0.99 1.00 0.98 0.93 0.98 1.10 1.20 1.25 1.29 1.33 1.34 1.35 1.40 1.49 1.52
0.67 0.72 0.75 0.77 0.80 0.79 0.80 0.78 0.76 0.75 0.77 0.78 0.78 0.80 0.90 1.01 1.09 1.14 1.20 1.16 1.11 1.03 0.99 1.02 1.00 0.98 0.98 0.99 1.00 1.00 0.98 0.96 1.00 1.06 1.10 1.13 1.20 1.30 1.32 1.26 1.26 1.39 1.49
0.58 0.65 0.70 0.74 0.76 0.76 0.77 0.76 0.74 0.71 0.72 0.75 0.76 0.80 0.85 0.89 0.95 1.02 1.03 0.98 0.99 0.95 0.91 0.93 0.93 0.97 0.99 0.97 0.96 0.97 1.00 1.03 1.00 1.01 1.03 1.03 1.08 1.20 1.23 1.15 1.17 1.28 1.49
0.52 0.63 0.69 0.71 0.72 0.73 0.76 0.76 0.76 0.77 0.75 0.74 0.78 0.85 0.93 0.96 0.97 0.97 0.93 0.92 0.94 0.92 0.88 0.92 0.90 0.91 0.96 0.98 0.98 0.98 1.01 1.00 0.98 0.98 0.98 0.98 1.02 1.13 1.18 1.13 1.18 1.29 1.37
0.50 0.56 0.64 0.66 0.69 0.72 0.78 0.82 0.83 0.84 0.84 0.81 0.79 0.83 1.13 1.25 1.09 0.93 0.90 0.93 0.98 1.01 0.99 0.96 0.90 0.86 0.88 0.92 0.97 0.97 0.98 0.94 0.91 0.97 1.00 1.00 1.03 1.10 1.09 1.14 1.18 1.23 1.32
0.53 0.58 0.61 0.65 0.69 0.74 0.81 0.83 0.83 0.85 0.84 0.82 0.79 0.80 0.88 0.88 0.86 0.84 0.85 0.90 0.97 1.03 1.05 1.06 0.98 0.87 0.87 0.98 1.04 1.07 1.01 0.91 0.88 0.97 1.05 1.03 1.04 1.08 1.11 1.15 1.17 1.23 1.30
0.57 0.62 0.63 0.63 0.67 0.76 0.79 0.75 0.78 0.82 0.83 0.80 0.78 0.78 0.79 0.81 0.83 0.87 0.91 0.93 0.98 1.02 1.00 1.00 0.98 0.86 0.79 0.87 0.96 1.09 1.13 1.02 0.98 1.11 1.25 1.21 1.13 1.12 1.15 1.18 1.16 1.22 1.26
0.63 0.66 0.68 0.67 0.69 0.71 0.74 0.74 0.76 0.79 0.81 0.81 0.80 0.81 0.83 0.84 0.84 0.88 0.91 0.94 0.98 0.99 0.98 0.97 0.93 0.85 0.80 0.83 0.87 0.90 0.97 1.08 1.30 1.46 1.43 1.43 1.30 1.17 1.16 1.19 1.16 1.15 1.21
0.65 0.67 0.70 0.73 0.74 0.76 0.77 0.75 0.75 0.78 0.81 0.82 0.82 0.82 0.82 0.83 0.84 0.87 0.90 0.94 0.97 0.98 0.94 0.91 0.90 0.85 0.80 0.78 0.79 0.83 0.94 1.13 1.38 1.72 1.94 1.87 1.56 1.29 1.23 1.23 1.17 1.15 1.19
0.65 0.65 0.68 0.72 0.76 0.80 0.85 0.84 0.82 0.82 0.87 0.86 0.84 0.86 0.88 0.89 0.88 0.90 0.93 0.99 1.04 1.02 0.95 0.91 0.85 0.81 0.79 0.79 0.78 0.84 1.00 1.21 1.44 1.72 2.16 2.33 1.92 1.47 1.31 1.32 1.23 1.21 1.24